Regional Weather Roundup
Issued by NWS

Home | Current Version | Previous Version | Text Only | Print | Product List | Glossary On
Versions: 1 2 3 4 5 6 7 8 9 10 11 12 13 14 15 16 17 18 19 20 21 22 23 24 25 26 27
000
ASUS43 KDMX 240007
RWRIA

WEATHER ROUNDUP FOR IOWA
NATIONAL WEATHER SERVICE DES MOINES IA
700 PM CDT WED APR 23 2014

NOTE: "FAIR" INDICATES FEW OR NO CLOUDS BELOW 12,000 FEET WITH NO
SIGNIFICANT WEATHER AND/OR OBSTRUCTIONS TO VISIBILITY.

* - THESE STATIONS ARE NOT NWS STATIONS...THUS NOT UNDER NWS
QUALITY CONTROL.  THEY ALSO DO NOT REPORT WEATHER SUCH
AS PRECIPITATION OR FOG.

IAZ001>003-012>014-020>022-031>034-043>046-240100-
   NORTHWEST IOWA

CITY           SKY/WX    TMP DP  RH WIND       PRES   REMARKS
CARROLL *      PTSUNNY   48  41  76 SE24G31   29.75F
CHEROKEE *     PTSUNNY   51  40  66 SE20G28   29.75S
DENISON *      PTSUNNY   52  43  71 SE16      29.69F
LE MARS *      SUNNY     57  43  58 SE22G29   29.67S
ORANGE CITY *  PTSUNNY   55  41  58 SE13G20   29.69F
SHELDON *      MOSUNNY   52  39  62 SE29G37   29.70F
SIOUX CITY     MOSUNNY   60  42  51 SE18G29   29.65F
6HR MIN TEMP:  60; 6HR MAX TEMP:  65; 6HR PCP: TRACE;

SPENCER        CLOUDY    49  38  65 SE29G41   29.77F
6HR MIN TEMP:  48; 6HR MAX TEMP:  51;

STORM LAKE *   MOSUNNY   48  39  71 SE28G40   29.74F
$$

IAZ055>058-069>071-079>083-090>094-240100-
   SOUTHWEST IOWA

CITY           SKY/WX    TMP DP  RH WIND       PRES   REMARKS
ATLANTIC *     LGT RAIN  50  45  81 E23G33    29.70F
AUDUBON *      LGT RAIN  48  43  81 SE15G24   29.73F
CLARINDA *     SUNNY     59  45  58 SE16G24   29.71F
COUNCIL BLFS * MOSUNNY   54  46  76 SE22G32   29.64F
CRESTON *      CLOUDY    52  43  71 E13       29.78F
HARLAN  *      CLOUDY    52  45  76 SE21G38   29.71F
LAMONI         CLOUDY    57  39  51 SE13G22   29.80R
6HR MIN TEMP:  51; 6HR MAX TEMP:  57; 6HR PCP:  0.01;

RED OAK *      PTSUNNY   57  43  58 E18G25    29.70F
SHENANDOAH *   SUNNY     61  45  55 E15       29.69F
$$

IAZ047>049-059>061-072>074-084-240100-
   CENTRAL IOWA

CITY           SKY/WX    TMP DP  RH WIND       PRES   REMARKS
AMES           CLOUDY    46  39  76 SE20G26   29.82F
6HR MIN TEMP:  44; 6HR MAX TEMP:  47; 6HR PCP:  0.26;

ANKENY *       CLOUDY    46  41  81 SE21G29   29.82F
CHARITON *     PTSUNNY   52  41  66 SE13G18   29.85R
DES MOINES     CLOUDY    49  40  71 SE13G22   29.84F
6HR MIN TEMP:  46; 6HR MAX TEMP:  49; 6HR PCP:  0.16;

GRINNELL*      CLOUDY    45  39  81 E22G30    29.85F
KNOXVILLE *    CLOUDY    48  39  71 SE17G25   29.85S
MARSHALLTOWN   LGT RAIN  45  40  82 E22G31    29.87F
6HR MIN TEMP:  44; 6HR MAX TEMP:  50; 6HR PCP:  0.12;

NEWTON *       CLOUDY    46  41  81 SE25G37   29.84F
PELLA *        CLOUDY    48  40  75 E17G25    29.86F
PERRY *        CLOUDY    46  39  76 SE24G30   29.78F
$$

IAZ004>006-015-016-023>025-035-036-240100-
   NORTH CENTRAL IOWA

CITY           SKY/WX    TMP DP  RH WIND       PRES   REMARKS
ALGONA *       CLOUDY    46  39  76 SE26G38   29.79F
CLARION *      CLOUDY    45  39  81 SE26G36   29.83S
ESTHERVILLE    CLOUDY    45  38  76 SE22G38   29.80R
6HR MIN TEMP:  45; 6HR MAX TEMP:  47; 6HR PCP:  0.01;

FORT DODGE *   CLOUDY    46  37  71 SE21G31   29.82R
MASON CITY     CLOUDY    44  37  76 SE24G33   29.88F
6HR MIN TEMP:  44; 6HR MAX TEMP:  48; 6HR PCP: TRACE;

FOREST CITY *  CLOUDY    45  37  76 SE21G33   29.84F
IOWA FALLS *   CLOUDY    45  39  81 SE23      29.87S
$$

IAZ007>011-017>019-026>030-037>042-050>054-066-240100-
   NORTHEAST IOWA

CITY           SKY/WX    TMP DP  RH WIND       PRES   REMARKS
CEDAR RAPIDS   CLOUDY    46  40  79 SE13G23   29.94F
6HR MIN TEMP:  45; 6HR MAX TEMP:  51; 6HR PCP:  0.15;

CHARLES CITY * CLOUDY    43  37  81 SE21G28   29.92F
CLINTON *      CLOUDY    48  37  66 SE12      30.03F
DECORAH *      DRIZZLE   45  36  70 S8        29.96S
DUBUQUE        LGT RAIN  47  35  63 SE8       29.99F
6HR MIN TEMP:  47; 6HR MAX TEMP:  50; 6HR PCP:  0.03;

MONTICELLO *   CLOUDY    46  41  81 SE12      29.97F
OELWEIN *      CLOUDY   N/A N/A N/A SE16      29.96F
WATERLOO       CLOUDY    45  39  79 SE20      29.92F
6HR MIN TEMP:  44; 6HR MAX TEMP:  50; 6HR PCP:  0.05;

$$

IAZ064-065-067-068-078-240100-
   EAST CENTRAL IOWA

CITY           SKY/WX    TMP DP  RH WIND       PRES   REMARKS
DAVENPORT      LGT RAIN  48  40  73 SE10      30.01F
6HR MIN TEMP:  48; 6HR MAX TEMP:  56; 6HR PCP:  0.09;

IOWA CITY      LGT RAIN  47  42  83 SE13      29.98F
6HR MIN TEMP:  47; 6HR MAX TEMP:  52; 6HR PCP:  0.13;

MT. PLEASANT * CLOUDY    51  40  66 E10       29.96R
MUSCATINE *    CLOUDY    50  43  76 E7G14     29.98F
QUAD CITIES    LGT RAIN  48  41  76 SE8       30.01S
6HR MIN TEMP:  48; 6HR MAX TEMP:  58; 6HR PCP:  0.09;

$$

IAZ062-063-075>077-085>089-095>099-240100-
   SOUTHEAST IOWA

CITY           SKY/WX    TMP DP  RH WIND       PRES   REMARKS
BURLINGTON     CLOUDY    53  38  56 SE10      29.95F
6HR MIN TEMP:  52; 6HR MAX TEMP:  56; 6HR PCP:  0.03;

FAIRFIELD *    MOCLDY    50  39  66 E14G22    29.94F
FORT MADISON * CLEAR     54  36  50 SE13      29.96F
KEOKUK *       CLEAR     59  32  36 SE17G26   29.93F HAZE
OSKALOOSA *    LGT RAIN  48  42  78 E20G25    29.90F
CENTERVILLE *  SUNNY     54  37  54 SE21G29   29.84F
OTTUMWA        CLOUDY    50  39  66 E14       29.90F
6HR MIN TEMP:  47; 6HR MAX TEMP:  50; 6HR PCP:  0.10;

WASHINGTON *   CLOUDY    48  43  81 E10       29.99R
$$

ABBREVIATIONS USED IN REMARKS
   TC - TEMPERATURES IN CELSIUS
  WCI - WIND CHILL INDEX
   HX - HEAT INDEX
  VSB - VISIBILITY
$$




USA.gov is the U.S. government's official web portal to all federal, state and local government web resources and services.